Home   Weather   Salem   Past weeks
Flag for USA

Past Weather in Salem, USA — Yesterday and Last 2 Weeks

Now
44 °F

Overcast.


Feels Like: 36 °F
Forecast: 51 / 42 °F
Wind: 20 mph from Southwest

Location: Kenosha Regional Airport

Current Time: Mar 29, 2020 at 11:22:43 am

Latest Report: Mar 29, 2020 at 10:53 am


Visibility: 10 mi

Pressure: 29.46 "Hg

Humidity: 79%

Dew Point: 38 °F

Location of SalemLocation

Past Weather in Salem — Graph

°F

Salem Temperature Yesterday

Maximum temperature yesterday: 53 °F (at 8:53 pm)
Minimum temperature yesterday: 43 °F (at 5:53 am)
Average temperature yesterday: 47 °F

High & Low Weather Summary for the Past Weeks

 TemperatureHumidityPressure
High60 °F (Mar 25, 2:53 pm)97% (Mar 28, 5:53 am)30.70 "Hg (Mar 28, 5:53 am)
Low24 °F (Mar 22, 2:53 am)30% (Mar 17, 3:53 pm)29.37 "Hg (Mar 29, 5:53 am)
Average40 °F78%30.10 "Hg
* Reported Mar 14 9:13 am — Mar 29 9:53 am, Salem. Weather by CustomWeather, © 2020

Note: Actual official high and low records may vary slightly from our data, if they occured in-between our weather recording intervals... More about our weather records

Salem Weather History for the Previous 24 Hours

Scroll right to see more
 ConditionsComfort  
Time TempWeatherWind HumidityBarometerVisibility
9:53 am
Sun, Mar 29
44 °FLight rain. Mostly cloudy.29 mph79%29.45 "Hg10 mi
8:53 am45 °FLight rain. Mostly cloudy.21 mph80%29.43 "Hg5 mi
7:53 am48 °FMostly cloudy.18 mph71%29.43 "Hg10 mi
6:53 am50 °FMostly cloudy.21 mph66%29.40 "Hg10 mi
5:53 am54 °FOvercast.17 mph64%29.37 "Hg10 mi
4:53 am55 °FPassing clouds.14 mph62%29.38 "Hg10 mi
3:53 am54 °FPassing clouds.12 mph64%29.38 "Hg10 mi
2:53 am57 °FClear.12 mph60%29.40 "Hg10 mi
1:53 am57 °FPassing clouds.12 mph64%29.41 "Hg10 mi
12:53 am52 °FFog.5 mph93%29.42 "Hg5 mi
12:17 am53 °FFog.5 mph96%29.43 "Hg6 mi
12:08 am54 °FFog.8 mph93%29.43 "Hg3 mi
11:53 pm
Sat, Mar 28
52 °FLight rain. Fog.9 mph97%29.47 "Hg0 mi
10:53 pm52 °FFog.14 mph93%29.46 "Hg0 mi
10:17 pm51 °FFog.18 mph92%29.46 "Hg0 mi
9:53 pm52 °FFog.10 mph89%29.49 "Hg1 mi
9:24 pm53 °FFog.22 mph89%29.50 "Hg2 mi
8:53 pm53 °FLight rain. Low clouds.17 mph89%29.54 "Hg7 mi
8:10 pm51 °FFog.18 mph89%29.52 "Hg3 mi
7:53 pm48 °FRain. Fog.8 mph89%29.57 "Hg2 mi
6:53 pm48 °FLight rain. Fog.16 mph89%29.64 "Hg4 mi
5:53 pm46 °FLight rain. Fog.16 mph89%29.66 "Hg3 mi
5:31 pm45 °FRain. Fog.12 mph93%29.68 "Hg2 mi
5:20 pm45 °FFog.12 mph93%29.68 "Hg3 mi
4:53 pm45 °FLight rain. Fog.14 mph93%29.67 "Hg2 mi
4:34 pm45 °FLight rain. Fog.14 mph93%29.67 "Hg1 mi
3:53 pm45 °FFog.14 mph93%29.71 "Hg0 mi
3:32 pm46 °FFog.14 mph89%29.71 "Hg1 mi
2:53 pm47 °FFog.10 mph90%29.71 "Hg2 mi
2:38 pm47 °FFog.10 mph90%29.71 "Hg3 mi
2:22 pm47 °FFog.9 mph90%29.70 "Hg1 mi
1:53 pm45 °FFog.8 mph93%29.72 "Hg0 mi
1:21 pm46 °FLight rain. Fog.12 mph89%29.72 "Hg0 mi
1:06 pm46 °FThundershowers. Fog.8 mph89%29.73 "Hg0 mi
11:53 am46 °FFog.7 mph93%29.74 "Hg1 mi
11:27 am46 °FFog.9 mph89%29.73 "Hg2 mi
Weather by CustomWeather, © 2020

See weather overview

Advertising